| time (UTC) | temp C | wind direction | speed KPH | gust KPH | rain 1hr cm | rain 24hr cm | rain mn cm | humidity % | barometer mb |
| 20260906224526 | 35 | 146 | 16.1 | 29.0 | 0.00 | 0.00 | 0.00 | 45 | 1007.4 |
| 20260906223025 | 36 | 128 | 12.9 | 24.1 | 0.00 | 0.00 | 0.00 | 44 | 1007.4 |
| 20260906221524 | 36 | 128 | 4.8 | 22.5 | 0.00 | 0.00 | 0.00 | 45 | 1007.4 |
| 20260906220022 | 35 | 108 | 12.9 | 29.0 | 0.00 | 0.00 | 0.00 | 45 | 1007.4 |
| 20260906214524 | 36 | 109 | 12.9 | 22.5 | 0.00 | 0.00 | 0.00 | 45 | 1007.3 |
| 20260906213022 | 35 | 113 | 11.3 | 22.5 | 0.00 | 0.00 | 0.00 | 46 | 1007.5 |
| 20260906211520 | 36 | 126 | 17.7 | 27.4 | 0.00 | 0.00 | 0.00 | 45 | 1007.7 |
| 20260906210017 | 36 | 122 | 14.5 | 27.4 | 0.00 | 0.00 | 0.00 | 46 | 1008.0 |
| 20260906204513 | 36 | 101 | 11.3 | 22.5 | 0.00 | 0.00 | 0.00 | 45 | 1008.1 |
| 20260906203011 | 36 | 140 | 12.9 | 25.7 | 0.00 | 0.00 | 0.00 | 46 | 1008.4 |
| 20260906201509 | 36 | 121 | 14.5 | 29.0 | 0.00 | 0.00 | 0.00 | 45 | 1008.5 |
| 20260906200008 | 35 | 144 | 9.7 | 25.7 | 0.00 | 0.00 | 0.00 | 46 | 1008.7 |
| 20260906194507 | 35 | 105 | 4.8 | 24.1 | 0.00 | 0.00 | 0.00 | 45 | 1008.8 |
| 20260906193007 | 35 | 71 | 14.5 | 22.5 | 0.00 | 0.00 | 0.00 | 46 | 1009.0 |
| 20260906191511 | 35 | 178 | 8.0 | 24.1 | 0.00 | 0.00 | 0.00 | 45 | 1009.1 |
| 20260906190005 | 35 | 90 | 6.4 | 20.9 | 0.00 | 0.00 | 0.00 | 45 | 1009.3 |
| 20260906184503 | 35 | 115 | 9.7 | 20.9 | 0.00 | 0.00 | 0.00 | 48 | 1009.5 |
| 20260906183000 | 35 | 146 | 8.0 | 24.1 | 0.00 | 0.00 | 0.00 | 48 | 1009.7 |
| 20260906181604 | 35 | 132 | 9.7 | 22.5 | 0.00 | 0.00 | 0.00 | 50 | 1010.0 |
| 20260906180106 | 35 | 138 | 11.3 | 20.9 | 0.00 | 0.00 | 0.00 | 50 | 1010.2 |
| 20260906174557 | 34 | 97 | 11.3 | 22.5 | 0.00 | 0.00 | 0.00 | 50 | 1010.4 |
| 20260906173052 | 34 | 106 | 9.7 | 20.9 | 0.00 | 0.00 | 0.00 | 50 | 1010.5 |
| 20260906171556 | 33 | 130 | 12.9 | 24.1 | 0.00 | 0.00 | 0.00 | 52 | 1010.7 |
| 20260906170057 | 33 | 142 | 8.0 | 22.5 | 0.00 | 0.00 | 0.00 | 54 | 1010.9 |
| 20260906164545 | 33 | 78 | 8.0 | 19.3 | 0.00 | 0.00 | 0.00 | 55 | 1010.9 |
| 20260906163045 | 32 | 140 | 6.4 | 17.7 | 0.00 | 0.00 | 0.00 | 55 | 1010.8 |
| 20260906161541 | 32 | 94 | 9.7 | 17.7 | 0.00 | 0.00 | 0.00 | 55 | 1010.8 |
| 20260906160041 | 32 | 98 | 4.8 | 17.7 | 0.00 | 0.00 | 0.00 | 58 | 1010.8 |
| 20260906154537 | 32 | 85 | 6.4 | 16.1 | 0.00 | 0.00 | 0.00 | 59 | 1010.9 |
| 20260906153020 | 31 | 99 | 4.8 | 11.3 | 0.00 | 0.00 | 0.00 | 57 | 1010.7 |
| 20260906151516 | 31 | 82 | 1.6 | 6.4 | 0.00 | 0.00 | 0.00 | 64 | 1010.7 |
| 20260906150022 | 30 | 136 | 3.2 | 9.7 | 0.00 | 0.00 | 0.00 | 69 | 1010.6 |
| 20260906144512 | 30 | 101 | 0.0 | 4.8 | 0.00 | 0.00 | 0.00 | 72 | 1010.7 |
| 20260906143005 | 28 | 62 | 1.6 | 6.4 | 0.00 | 0.00 | 0.00 | 76 | 1010.8 |
| 20260906141503 | 27 | 72 | 3.2 | 6.4 | 0.00 | 0.00 | 0.00 | 80 | 1010.8 |
| 20260906140004 | 27 | 75 | 3.2 | 6.4 | 0.00 | 0.00 | 0.00 | 83 | 1010.8 |
| 20260906134502 | 26 | 55 | 3.2 | 6.4 | 0.00 | 0.00 | 0.00 | 85 | 1010.8 |
| 20260906133003 | 26 | 74 | 1.6 | 4.8 | 0.00 | 0.00 | 0.00 | 87 | 1010.7 |
| 20260906131559 | 25 | 87 | 1.6 | 4.8 | 0.00 | 0.00 | 0.00 | 88 | 1010.8 |
| 20260906130100 | 24 | 58 | 1.6 | 4.8 | 0.00 | 0.00 | 0.00 | 90 | 1010.7 |
| 20260906124557 | 24 | 17 | 0.0 | 0.0 | 0.00 | 0.00 | 0.00 | 91 | 1010.5 |
| 20260906123056 | 23 | 17 | 0.0 | 0.0 | 0.00 | 0.00 | 0.00 | 91 | 1010.4 |
| 20260906121557 | 23 | 17 | 0.0 | 1.6 | 0.00 | 0.00 | 0.00 | 91 | 1010.3 |
| 20260906120110 | 23 | 17 | 0.0 | 1.6 | 0.00 | 0.00 | 0.00 | 90 | 1010.2 |
| 20260906114551 | 23 | 17 | 1.6 | 3.2 | 0.00 | 0.00 | 0.00 | 89 | 1010.1 |
| 20260906113052 | 24 | 130 | 0.0 | 3.2 | 0.00 | 0.00 | 0.00 | 89 | 1010.0 |
| 20260906111604 | 25 | 130 | 1.6 | 4.8 | 0.00 | 0.00 | 0.00 | 89 | 1009.8 |
| 20260906110045 | 25 | 130 | 3.2 | 9.7 | 0.00 | 0.00 | 0.00 | 88 | 1009.7 |
| 20260906104543 | 25 | 140 | 4.8 | 9.7 | 0.00 | 0.00 | 0.00 | 88 | 1009.5 |
| 20260906103143 | 25 | 122 | 4.8 | 9.7 | 0.00 | 0.00 | 0.00 | 89 | 1009.4 |
| 20260906101542 | 25 | 131 | 0.0 | 4.8 | 0.00 | 0.00 | 0.00 | 88 | 1009.4 |
| 20260906100041 | 25 | 131 | 0.0 | 0.0 | 0.00 | 0.00 | 0.00 | 87 | 1009.4 |
| 20260906094541 | 25 | 131 | 0.0 | 3.2 | 0.00 | 0.00 | 0.00 | 85 | 1009.3 |
| 20260906093040 | 25 | 131 | 0.0 | 3.2 | 0.00 | 0.00 | 0.00 | 84 | 1009.1 |
| 20260906091536 | 25 | 128 | 3.2 | 4.8 | 0.00 | 0.00 | 0.00 | 84 | 1009.0 |
| 20260906090035 | 26 | 146 | 1.6 | 4.8 | 0.00 | 0.00 | 0.00 | 84 | 1009.1 |
| 20260906084544 | 26 | 136 | 4.8 | 11.3 | 0.00 | 0.00 | 0.00 | 83 | 1008.8 |
| 20260906083036 | 26 | 135 | 1.6 | 6.4 | 0.00 | 0.00 | 0.00 | 81 | 1008.8 |
| 20260906081530 | 26 | 163 | 3.2 | 12.9 | 0.00 | 0.00 | 0.00 | 80 | 1008.7 |
| 20260906080034 | 26 | 158 | 3.2 | 8.0 | 0.00 | 0.00 | 0.00 | 79 | 1008.8 |
| 20260906074527 | 26 | 157 | 3.2 | 4.8 | 0.00 | 0.00 | 0.00 | 78 | 1008.6 |
| 20260906073032 | 26 | 157 | 3.2 | 4.8 | 0.00 | 0.00 | 0.00 | 77 | 1008.7 |
| 20260906071523 | 27 | 171 | 1.6 | 4.8 | 0.00 | 0.00 | 0.00 | 77 | 1008.8 |
| 20260906070022 | 27 | 172 | 3.2 | 8.0 | 0.00 | 0.00 | 0.00 | 78 | 1009.1 |
| 20260906064521 | 27 | 128 | 6.4 | 9.7 | 0.00 | 0.00 | 0.00 | 77 | 1009.2 |
| 20260906063020 | 27 | 148 | 6.4 | 12.9 | 0.00 | 0.00 | 0.00 | 77 | 1009.1 |
| 20260906061518 | 27 | 148 | 8.0 | 17.7 | 0.00 | 0.00 | 0.00 | 75 | 1009.0 |
| 20260906060019 | 27 | 161 | 6.4 | 11.3 | 0.00 | 0.00 | 0.00 | 74 | 1009.0 |
| 20260906054516 | 28 | 148 | 8.0 | 12.9 | 0.00 | 0.00 | 0.00 | 73 | 1009.3 |
| 20260906053012 | 28 | 159 | 4.8 | 11.3 | 0.00 | 0.00 | 0.00 | 73 | 1009.2 |
| 20260906051510 | 28 | 146 | 0.0 | 0.0 | 0.00 | 0.00 | 0.00 | 72 | 1009.0 |
| 20260906050008 | 28 | 146 | 0.0 | 0.0 | 0.00 | 0.00 | 0.00 | 72 | 1009.0 |
| 20260906044512 | 28 | 146 | 0.0 | 8.0 | 0.00 | 0.00 | 0.00 | 71 | 1009.1 |
| 20260906043007 | 28 | 128 | 6.4 | 11.3 | 0.00 | 0.00 | 0.00 | 71 | 1009.3 |
| 20260906041506 | 28 | 147 | 4.8 | 8.0 | 0.00 | 0.00 | 0.00 | 69 | 1009.1 |
| 20260906040009 | 29 | 161 | 6.4 | 12.9 | 0.00 | 0.00 | 0.00 | 68 | 1009.1 |
| 20260906034511 | 29 | 212 | 4.8 | 9.7 | 0.00 | 0.00 | 0.00 | 67 | 1009.1 |
| 20260906033016 | 29 | 150 | 4.8 | 11.3 | 0.00 | 0.00 | 0.00 | 66 | 1009.0 |
| 20260906031504 | 30 | 147 | 9.7 | 16.1 | 0.00 | 0.00 | 0.00 | 65 | 1009.0 |
| 20260906030004 | 30 | 133 | 9.7 | 16.1 | 0.00 | 0.00 | 0.00 | 64 | 1009.1 |
| 20260906024503 | 30 | 147 | 11.3 | 19.3 | 0.00 | 0.00 | 0.00 | 63 | 1009.0 |
| 20260906023104 | 30 | 142 | 11.3 | 19.3 | 0.00 | 0.00 | 0.00 | 62 | 1008.7 |
| 20260906021501 | 30 | 149 | 9.7 | 19.3 | 0.00 | 0.00 | 0.00 | 61 | 1008.5 |
| 20260906020101 | 30 | 151 | 11.3 | 19.3 | 0.00 | 0.00 | 0.00 | 60 | 1008.3 |
| 20260906014609 | 31 | 122 | 9.7 | 17.7 | 0.00 | 0.00 | 0.00 | 60 | 1008.1 |
| 20260906013100 | 31 | 138 | 12.9 | 27.4 | 0.00 | 0.00 | 0.00 | 58 | 1008.1 |
| 20260906011559 | 31 | 121 | 14.5 | 25.7 | 0.00 | 0.00 | 0.00 | 57 | 1007.8 |
| 20260906010113 | 32 | 128 | 17.7 | 30.6 | 0.00 | 0.00 | 0.00 | 56 | 1007.6 |
| 20260906004602 | 34 | 132 | 4.8 | 14.5 | 0.00 | 0.00 | 0.00 | 45 | 1007.3 |
| 20260906003112 | 35 | 152 | 8.0 | 14.5 | 0.00 | 0.00 | 0.00 | 45 | 1007.2 |
| 20260906001556 | 35 | 144 | 9.7 | 16.1 | 0.00 | 0.00 | 0.00 | 44 | 1007.2 |
| 20260906000103 | 35 | 132 | 8.0 | 16.1 | 0.00 | 0.00 | 0.00 | 44 | 1007.2 |
| 20260905234606 | 35 | 123 | 8.0 | 16.1 | 0.00 | 0.00 | 0.00 | 44 | 1007.0 |
| 20260905233056 | 35 | 108 | 11.3 | 17.7 | 0.00 | 0.00 | 0.00 | 43 | 1006.9 |
| 20260905231554 | 36 | 92 | 4.8 | 11.3 | 0.00 | 0.00 | 0.00 | 42 | 1006.9 |
| 20260905230053 | 36 | 82 | 3.2 | 12.9 | 0.00 | 0.00 | 0.00 | 43 | 1007.0 |